User: anonymous   Login
Location: Unspecified
(0.0000°N, 0.0000°E)
Time: 06:43:30
(UTC+00:00)
Language:

Explorer 11/Cluster Stage 4 - Orbit

View from above orbital plane
View from above orbital plane
View from above satellite
View from above satellite

Ground track
Ground track

The orbit data is extracted from the following two-line orbital elements,

1 00107U 61013A   16272.10103232  .00001629  00000-0  20019-3 0  9992
2 00107  28.7910 288.5098 0550285 280.9906  72.9266 14.08011591774095
Epoch (UTC): 28 September 2016 02:25:29
Eccentricity: 0.0550285
inclination: 28.7910°
perigee height: 467 km
apogee height: 1265 km
right ascension of ascending node: 288.5098°
argument of perigee: 280.9906°
revolutions per day: 14.08011591
mean anomaly at epoch: 72.9266°
orbit number at epoch: 77409

The dashed part of the orbit path shows where the satellite is in the earth's shadow,  

DLR